WZZ56 EETN-LHBP

Flight info

Callsign WZZ56
Flight time 2h 5m
Altitude 34000
Route ORTAX DCT LUTAL P870 BERIL/N0438F330 DCT BOKSU/N0438F340 DCT SUWGI DCT TITUV DCT EVINA/N0436F330 DCT KELEL/N0431F320 DCT EDEMU
Aircraft A21N/M-SDE1E2E3FGIJ1J4RWXY/LB1

Departure

Time 2026-05-07 18:08
Airport Lennart Meri Tallinn Airport (EETN)

Arrival

Time 2026-05-07 20:14
Airport Budapest Liszt Ferenc International Airport (LHBP)
Time Latitude Longitude Altitude Speed Heading
2026-05-07 17:43 59.41582 24.80140 156 ft 0 kts
2026-05-07 17:59 59.41571 24.80140 156 ft 2 kts
2026-05-07 18:00 59.41556 24.80140 156 ft 2 kts
2026-05-07 18:00 59.41541 24.80135 156 ft 2 kts 33°
2026-05-07 18:00 59.41531 24.80114 156 ft 2 kts 65°
2026-05-07 18:00 59.41528 24.80094 156 ft 0 kts 87°
2026-05-07 18:01 59.41528 24.80080 156 ft 0 kts 90°
2026-05-07 18:03 59.41528 24.80085 156 ft 1 kts 90°
2026-05-07 18:03 59.41528 24.80134 156 ft 6 kts 89°
2026-05-07 18:03 59.41529 24.80236 156 ft 8 kts 89°
2026-05-07 18:04 59.41529 24.80348 156 ft 7 kts 91°
2026-05-07 18:04 59.41517 24.80442 156 ft 7 kts 133°
2026-05-07 18:04 59.41485 24.80470 156 ft 4 kts 176°
2026-05-07 18:04 59.41452 24.80476 155 ft 4 kts 165°
2026-05-07 18:05 59.41445 24.80482 155 ft 0 kts 154°
2026-05-07 18:06 59.41436 24.80492 155 ft 3 kts 145°
2026-05-07 18:06 59.41410 24.80538 155 ft 6 kts 135°
2026-05-07 18:06 59.41371 24.80614 154 ft 9 kts 135°
2026-05-07 18:07 59.41334 24.80749 154 ft 14 kts 95°
2026-05-07 18:07 59.41333 24.81281 150 ft 73 kts 90°
2026-05-07 18:07 59.41328 24.82718 147 ft 136 kts 90°
2026-05-07 18:07 59.41321 24.84080 151 ft 169 kts 89°
2026-05-07 18:08 59.41320 24.84359 158 ft 174 kts 88°
2026-05-07 18:08 59.41317 24.85168 227 ft 182 kts 89°
2026-05-07 18:08 59.41316 24.85237 236 ft 182 kts 89°
2026-05-07 18:08 59.41296 24.87801 763 ft 190 kts 88°
2026-05-07 18:09 59.41278 24.90333 1508 ft 189 kts 91°
2026-05-07 18:09 59.40807 24.92545 2072 ft 194 kts 134°
2026-05-07 18:09 59.40187 24.93408 2279 ft 200 kts 156°
2026-05-07 18:09 59.38781 24.93538 2550 ft 211 kts 199°
2026-05-07 18:10 59.37378 24.92455 2856 ft 225 kts 203°
2026-05-07 18:10 59.35866 24.91304 3104 ft 244 kts 202°
2026-05-07 18:10 59.34222 24.90095 3422 ft 261 kts 201°
2026-05-07 18:10 59.32477 24.88835 3846 ft 275 kts 201°
2026-05-07 18:11 59.30658 24.87532 4506 ft 279 kts 201°
2026-05-07 18:11 59.28832 24.86229 5227 ft 281 kts 201°
2026-05-07 18:11 59.27013 24.84934 5945 ft 284 kts 200°
2026-05-07 18:11 59.25171 24.83626 6622 ft 287 kts 200°
2026-05-07 18:12 59.23282 24.82289 7345 ft 289 kts 201°
2026-05-07 18:12 59.21399 24.80961 8112 ft 290 kts 201°
2026-05-07 18:12 59.19514 24.79631 8861 ft 290 kts 202°
2026-05-07 18:12 59.17609 24.78286 9554 ft 291 kts 202°
2026-05-07 18:13 59.15724 24.76957 10241 ft 292 kts 203°
2026-05-07 18:13 59.13794 24.75593 10719 ft 302 kts 203°
2026-05-07 18:13 59.11776 24.74162 10997 ft 316 kts 203°
2026-05-07 18:13 59.09693 24.72691 11476 ft 323 kts 204°
2026-05-07 18:14 59.07578 24.71203 12105 ft 325 kts 204°
2026-05-07 18:14 59.05460 24.69718 12687 ft 327 kts 204°
2026-05-07 18:14 59.03326 24.68223 13310 ft 329 kts 204°
2026-05-07 18:14 59.01169 24.66714 13911 ft 331 kts 204°
2026-05-07 18:15 58.99001 24.65201 14482 ft 333 kts 205°
2026-05-07 18:15 58.96852 24.63701 15034 ft 334 kts 205°
2026-05-07 18:15 58.94670 24.62175 15585 ft 336 kts 205°
2026-05-07 18:15 58.92480 24.60650 16126 ft 337 kts 205°
2026-05-07 18:16 58.90257 24.59103 16672 ft 338 kts 205°
2026-05-07 18:16 58.88069 24.57583 17197 ft 339 kts 205°
2026-05-07 18:16 58.85843 24.56037 17711 ft 340 kts 205°
2026-05-07 18:16 58.83627 24.54503 18207 ft 341 kts 206°
2026-05-07 18:17 58.81399 24.52962 18685 ft 342 kts 206°
2026-05-07 18:17 58.79162 24.51416 19162 ft 343 kts 206°
2026-05-07 18:17 58.76925 24.49869 19619 ft 344 kts 206°
2026-05-07 18:17 58.74676 24.48319 20078 ft 345 kts 206°
2026-05-07 18:18 58.72411 24.46760 20518 ft 347 kts 206°
2026-05-07 18:18 58.70151 24.45207 20942 ft 348 kts 206°
2026-05-07 18:18 58.67858 24.43636 21375 ft 349 kts 206°
2026-05-07 18:18 58.65575 24.42071 21789 ft 350 kts 206°
2026-05-07 18:19 58.63287 24.40506 22179 ft 351 kts 206°
2026-05-07 18:19 58.60990 24.38936 22552 ft 353 kts 206°
2026-05-07 18:19 58.58684 24.37362 22901 ft 355 kts 206°
2026-05-07 18:19 58.56369 24.35784 23272 ft 356 kts 206°
2026-05-07 18:20 58.54054 24.34211 23642 ft 357 kts 205°
2026-05-07 18:20 58.51699 24.32611 24011 ft 358 kts 205°
2026-05-07 18:20 58.49351 24.31017 24345 ft 360 kts 205°
2026-05-07 18:20 58.46995 24.29420 24690 ft 361 kts 205°
2026-05-07 18:21 58.44626 24.27819 25047 ft 362 kts 205°
2026-05-07 18:21 58.42254 24.26216 25381 ft 364 kts 205°
2026-05-07 18:21 58.39887 24.24619 25709 ft 365 kts 205°
2026-05-07 18:21 58.37477 24.22996 26026 ft 367 kts 205°
2026-05-07 18:22 58.35091 24.21391 26324 ft 369 kts 205°
2026-05-07 18:22 58.33471 24.20304 26514 ft 370 kts 205°
2026-05-07 18:22 58.30228 24.18128 26905 ft 372 kts 205°
2026-05-07 18:22 58.27805 24.16504 27204 ft 373 kts 205°
2026-05-07 18:23 58.25366 24.14875 27471 ft 375 kts 205°
2026-05-07 18:23 58.22917 24.13240 27729 ft 377 kts 205°
2026-05-07 18:23 58.20443 24.11589 28023 ft 377 kts 205°
2026-05-07 18:23 58.17966 24.09942 28312 ft 378 kts 205°
2026-05-07 18:24 58.15500 24.08303 28594 ft 379 kts 205°
2026-05-07 18:24 58.13030 24.06664 28858 ft 380 kts 204°
2026-05-07 18:24 58.10522 24.05003 29111 ft 382 kts 204°
2026-05-07 18:24 58.08021 24.03348 29384 ft 383 kts 204°
2026-05-07 18:25 58.05516 24.01694 29633 ft 384 kts 204°
2026-05-07 18:25 58.03015 24.00046 29889 ft 385 kts 204°
2026-05-07 18:25 58.00474 23.98375 30136 ft 386 kts 204°
2026-05-07 18:25 57.97936 23.96707 30371 ft 387 kts 204°
2026-05-07 18:26 57.95420 23.95054 30595 ft 388 kts 204°
2026-05-07 18:26 57.92852 23.93393 30823 ft 390 kts 203°
2026-05-07 18:26 57.90258 23.91948 31009 ft 394 kts 200°
2026-05-07 18:26 57.87575 23.90747 31203 ft 398 kts 198°
2026-05-07 18:27 57.84858 23.89809 31411 ft 400 kts 196°
2026-05-07 18:27 57.82146 23.88915 31658 ft 400 kts 196°
2026-05-07 18:27 57.79398 23.87991 31941 ft 399 kts 196°
2026-05-07 18:27 57.76682 23.87085 32221 ft 398 kts 196°
2026-05-07 18:28 57.73959 23.86182 32478 ft 397 kts 196°
2026-05-07 18:28 57.71246 23.85287 32742 ft 397 kts 196°
2026-05-07 18:28 57.68577 23.84409 32999 ft 396 kts 196°
2026-05-07 18:28 57.65874 23.83523 33242 ft 396 kts 196°
2026-05-07 18:29 57.63174 23.82640 33490 ft 395 kts 196°
2026-05-07 18:29 57.60475 23.81759 33744 ft 394 kts 196°
2026-05-07 18:29 57.57790 23.80888 33986 ft 394 kts 196°
2026-05-07 18:29 57.55079 23.80007 34238 ft 393 kts 196°
2026-05-07 18:30 57.52412 23.79142 34468 ft 392 kts 196°
2026-05-07 18:30 57.49746 23.78279 34657 ft 393 kts 195°
2026-05-07 18:30 57.47040 23.77404 34791 ft 393 kts 196°
2026-05-07 18:30 57.44369 23.76540 34929 ft 394 kts 195°
2026-05-07 18:31 57.41663 23.75665 35057 ft 395 kts 195°
2026-05-07 18:31 57.36274 23.73924 35260 ft 396 kts 196°
2026-05-07 18:31 57.33557 23.73048 35363 ft 397 kts 195°
2026-05-07 18:32 57.30838 23.72172 35464 ft 398 kts 195°
2026-05-07 18:32 57.28112 23.71298 35566 ft 399 kts 195°
2026-05-07 18:32 57.25391 23.70425 35674 ft 400 kts 195°
2026-05-07 18:33 57.19949 23.68688 35857 ft 400 kts 195°
2026-05-07 18:33 57.14449 23.66936 36020 ft 402 kts 195°
2026-05-07 18:34 57.08952 23.65194 36037 ft 403 kts 195°
2026-05-07 18:34 57.03465 23.63459 36049 ft 402 kts 195°
2026-05-07 18:35 56.97968 23.61727 36040 ft 402 kts 195°
2026-05-07 18:35 56.92468 23.59998 36049 ft 402 kts 195°
2026-05-07 18:36 56.86988 23.58279 36053 ft 402 kts 195°
2026-05-07 18:36 56.81500 23.56566 36055 ft 401 kts 195°
2026-05-07 18:37 56.75988 23.54847 36040 ft 401 kts 195°
2026-05-07 18:37 56.70556 23.53158 36044 ft 400 kts 195°
2026-05-07 18:38 56.65058 23.51454 36039 ft 400 kts 195°
2026-05-07 18:38 56.59606 23.49770 36038 ft 399 kts 195°
2026-05-07 18:39 56.54152 23.48090 36040 ft 399 kts 195°
2026-05-07 18:39 56.48702 23.46419 36033 ft 398 kts 195°
2026-05-07 18:40 56.43255 23.44754 36039 ft 398 kts 195°
2026-05-07 18:40 56.37806 23.43093 36040 ft 398 kts 195°
2026-05-07 18:41 56.32315 23.41912 36037 ft 399 kts 192°
2026-05-07 18:41 56.26823 23.40866 36036 ft 398 kts 192°
2026-05-07 18:42 56.21347 23.39824 36032 ft 398 kts 192°
2026-05-07 18:42 56.15866 23.38794 36034 ft 398 kts 192°
2026-05-07 18:43 56.10353 23.37767 36045 ft 397 kts 192°
2026-05-07 18:43 56.04888 23.36753 36035 ft 396 kts 192°
2026-05-07 18:44 55.99433 23.35744 36031 ft 396 kts 192°
2026-05-07 18:44 55.93963 23.34737 36043 ft 396 kts 191°
2026-05-07 18:45 55.88504 23.33731 36029 ft 396 kts 191°
2026-05-07 18:45 55.83036 23.32726 36025 ft 396 kts 191°
2026-05-07 18:46 55.77559 23.31725 36025 ft 396 kts 191°
2026-05-07 18:46 55.72101 23.30731 36027 ft 396 kts 191°
2026-05-07 18:47 55.66622 23.29735 36021 ft 396 kts 190°
2026-05-07 18:47 55.61162 23.28744 36015 ft 396 kts 190°
2026-05-07 18:48 55.55716 23.27760 36014 ft 396 kts 191°
2026-05-07 18:48 55.50248 23.26774 36016 ft 395 kts 190°
2026-05-07 18:49 55.44787 23.25793 36014 ft 395 kts 190°
2026-05-07 18:49 55.39325 23.24814 36014 ft 396 kts 190°
2026-05-07 18:50 55.33865 23.23838 36009 ft 396 kts 190°
2026-05-07 18:50 55.28423 23.22867 36010 ft 396 kts 190°
2026-05-07 18:51 55.22968 23.21897 36012 ft 397 kts 190°
2026-05-07 18:51 55.17491 23.20926 36018 ft 397 kts 190°
2026-05-07 18:52 55.12000 23.19955 36008 ft 397 kts 190°
2026-05-07 18:52 55.06551 23.18996 36003 ft 396 kts 190°
2026-05-07 18:53 55.01080 23.18032 36009 ft 396 kts 190°
2026-05-07 18:53 54.95595 23.17070 36013 ft 396 kts 189°
2026-05-07 18:54 54.90147 23.16118 35997 ft 396 kts 189°
2026-05-07 18:54 54.84683 23.15166 36000 ft 397 kts 189°
2026-05-07 18:55 54.79219 23.14216 36010 ft 396 kts 189°
2026-05-07 18:55 54.73736 23.13267 36005 ft 395 kts 189°
2026-05-07 18:56 54.68290 23.12325 35998 ft 396 kts 189°
2026-05-07 18:56 54.62837 23.11385 35985 ft 395 kts 189°
2026-05-07 18:57 54.57376 23.10446 36001 ft 396 kts 189°
2026-05-07 18:57 54.51907 23.09510 35988 ft 396 kts 189°
2026-05-07 18:58 54.46429 23.08577 35981 ft 396 kts 189°
2026-05-07 18:58 54.40970 23.07645 35973 ft 396 kts 189°
2026-05-07 18:59 54.35500 23.06593 35969 ft 394 kts 192°
2026-05-07 18:59 54.30186 23.04741 35970 ft 392 kts 197°
2026-05-07 19:00 54.25012 23.01988 35965 ft 390 kts 202°
2026-05-07 19:00 54.19955 22.98628 35957 ft 390 kts 202°
2026-05-07 19:01 54.14933 22.95313 35958 ft 390 kts 203°
2026-05-07 19:01 54.09885 22.91920 35953 ft 390 kts 204°
2026-05-07 19:02 54.05035 22.87934 35952 ft 389 kts 209°
2026-05-07 19:02 54.00034 22.84414 35947 ft 391 kts 202°
2026-05-07 19:03 53.94958 22.81238 35946 ft 391 kts 202°
2026-05-07 19:03 53.89859 22.78034 35945 ft 392 kts 202°
2026-05-07 19:04 53.84772 22.74830 35947 ft 392 kts 202°
2026-05-07 19:04 53.79653 22.71604 35949 ft 391 kts 202°
2026-05-07 19:05 53.74564 22.68402 35951 ft 391 kts 202°
2026-05-07 19:05 53.69472 22.65207 35957 ft 391 kts 201°
2026-05-07 19:06 53.64414 22.62041 35962 ft 392 kts 202°
2026-05-07 19:06 53.56741 22.57253 35958 ft 392 kts 202°
2026-05-07 19:07 53.51640 22.54078 35959 ft 393 kts 202°
2026-05-07 19:07 53.46526 22.50905 35960 ft 393 kts 201°
2026-05-07 19:08 53.41416 22.47745 35967 ft 393 kts 202°
2026-05-07 19:08 53.36309 22.44591 35965 ft 393 kts 202°
2026-05-07 19:09 53.31187 22.41435 35961 ft 393 kts 202°
2026-05-07 19:09 53.26088 22.38303 35953 ft 393 kts 201°
2026-05-07 19:10 53.20983 22.35174 35956 ft 392 kts 201°
2026-05-07 19:10 53.15842 22.32035 35959 ft 392 kts 201°
2026-05-07 19:11 53.10764 22.28940 35956 ft 393 kts 201°
2026-05-07 19:11 53.05621 22.25816 35961 ft 393 kts 201°
2026-05-07 19:12 53.00513 22.22715 35960 ft 393 kts 201°
2026-05-07 19:12 52.95399 22.19623 35962 ft 394 kts 201°
2026-05-07 19:13 52.90239 22.16507 35961 ft 394 kts 200°
2026-05-07 19:13 52.85115 22.13425 35962 ft 394 kts 201°
2026-05-07 19:14 52.79964 22.10331 35958 ft 394 kts 200°
2026-05-07 19:14 52.74818 22.07249 35960 ft 395 kts 200°
2026-05-07 19:15 52.69671 22.04175 35958 ft 394 kts 200°
2026-05-07 19:15 52.64561 22.01131 35963 ft 394 kts 200°
2026-05-07 19:16 52.59417 21.98077 35959 ft 394 kts 200°
2026-05-07 19:16 52.54275 21.95026 35958 ft 394 kts 200°
2026-05-07 19:17 52.49127 21.91982 35960 ft 394 kts 200°
2026-05-07 19:17 52.43982 21.88945 35960 ft 394 kts 200°
2026-05-07 19:18 52.38811 21.85903 35959 ft 395 kts 200°
2026-05-07 19:18 52.33667 21.82883 35958 ft 395 kts 200°
2026-05-07 19:19 52.28518 21.79868 35955 ft 395 kts 200°
2026-05-07 19:19 52.23360 21.76858 35953 ft 395 kts 200°
2026-05-07 19:20 52.18202 21.73852 35949 ft 395 kts 200°
2026-05-07 19:20 52.13041 21.70852 35949 ft 394 kts 200°
2026-05-07 19:21 52.07892 21.67866 35936 ft 395 kts 200°
2026-05-07 19:21 52.02737 21.64883 35939 ft 395 kts 200°
2026-05-07 19:22 51.97575 21.61908 35946 ft 395 kts 200°
2026-05-07 19:22 51.92416 21.58938 35946 ft 396 kts 200°
2026-05-07 19:23 51.87206 21.55949 35945 ft 396 kts 200°
2026-05-07 19:23 51.82022 21.52981 35955 ft 396 kts 200°
2026-05-07 19:24 51.76838 21.50018 35941 ft 396 kts 200°
2026-05-07 19:24 51.71645 21.47060 35950 ft 396 kts 200°
2026-05-07 19:25 51.66472 21.44117 35955 ft 396 kts 200°
2026-05-07 19:25 51.61303 21.41184 35955 ft 396 kts 200°
2026-05-07 19:26 51.56111 21.38248 35948 ft 396 kts 200°
2026-05-07 19:26 51.50938 21.35328 35955 ft 395 kts 200°
2026-05-07 19:27 51.45712 21.32388 35951 ft 396 kts 199°
2026-05-07 19:27 51.40515 21.29469 35963 ft 396 kts 200°
2026-05-07 19:28 51.35334 21.26562 35958 ft 396 kts 200°
2026-05-07 19:28 51.30117 21.23647 35956 ft 397 kts 200°
2026-05-07 19:29 51.24929 21.20755 35950 ft 397 kts 200°
2026-05-07 19:29 51.19736 21.17866 35953 ft 397 kts 200°
2026-05-07 19:30 51.14509 21.14963 35949 ft 398 kts 199°
2026-05-07 19:30 51.09314 21.12089 35949 ft 398 kts 199°
2026-05-07 19:31 51.04074 21.09193 35941 ft 399 kts 199°
2026-05-07 19:31 50.98844 21.06313 35948 ft 399 kts 200°
2026-05-07 19:32 50.93618 21.03440 35953 ft 399 kts 200°
2026-05-07 19:32 50.88403 21.00582 35939 ft 398 kts 200°
2026-05-07 19:33 50.83156 20.97711 35956 ft 399 kts 200°
2026-05-07 19:33 50.77906 20.94844 35957 ft 399 kts 200°
2026-05-07 19:34 50.72660 20.91987 35945 ft 399 kts 200°
2026-05-07 19:34 50.67440 20.89152 35956 ft 399 kts 200°
2026-05-07 19:35 50.62193 20.86308 35952 ft 399 kts 200°
2026-05-07 19:35 50.56944 20.83471 35956 ft 399 kts 200°
2026-05-07 19:36 50.51704 20.80644 35946 ft 399 kts 200°
2026-05-07 19:36 50.46487 20.77838 35956 ft 400 kts 200°
2026-05-07 19:37 50.41202 20.74999 35954 ft 406 kts 200°
2026-05-07 19:37 50.35834 20.72125 35962 ft 412 kts 200°
2026-05-07 19:38 50.30380 20.69212 35955 ft 417 kts 200°
2026-05-07 19:38 50.24888 20.66284 35947 ft 418 kts 200°
2026-05-07 19:39 50.19394 20.63364 35962 ft 418 kts 200°
2026-05-07 19:39 50.13897 20.60448 35968 ft 418 kts 200°
2026-05-07 19:40 50.08407 20.57544 35960 ft 418 kts 200°
2026-05-07 19:40 50.02924 20.54650 35962 ft 418 kts 200°
2026-05-07 19:41 49.97409 20.51745 35971 ft 418 kts 200°
2026-05-07 19:41 49.91925 20.48864 35969 ft 418 kts 200°
2026-05-07 19:42 49.86411 20.45978 35977 ft 419 kts 200°
2026-05-07 19:42 49.80901 20.43096 35969 ft 418 kts 200°
2026-05-07 19:43 49.75396 20.40227 35964 ft 418 kts 200°
2026-05-07 19:43 49.69860 20.37349 35983 ft 419 kts 200°
2026-05-07 19:44 49.64354 20.34491 35980 ft 418 kts 199°
2026-05-07 19:44 49.59063 20.31751 35967 ft 419 kts 199°
2026-05-07 19:45 49.53536 20.28898 35974 ft 419 kts 199°
2026-05-07 19:45 49.48037 20.26064 35977 ft 420 kts 199°
2026-05-07 19:46 49.42474 20.23208 35983 ft 420 kts 199°
2026-05-07 19:46 49.36959 20.20381 35969 ft 420 kts 199°
2026-05-07 19:47 49.31370 20.17672 35979 ft 421 kts 196°
2026-05-07 19:47 49.25693 20.15681 35972 ft 422 kts 194°
2026-05-07 19:48 49.19966 20.13782 35963 ft 422 kts 194°
2026-05-07 19:48 49.14248 20.11894 35937 ft 420 kts 194°
2026-05-07 19:49 49.11412 20.10962 35815 ft 412 kts 194°
2026-05-07 19:49 49.08651 20.10057 35641 ft 403 kts 194°
2026-05-07 19:49 49.05947 20.09172 35309 ft 399 kts 193°
2026-05-07 19:49 49.03256 20.08291 34896 ft 395 kts 193°
2026-05-07 19:50 49.00597 20.07426 34466 ft 392 kts 194°
2026-05-07 19:50 48.97943 20.06560 33891 ft 390 kts 193°
2026-05-07 19:50 48.95273 20.05690 33240 ft 390 kts 193°
2026-05-07 19:50 48.92629 20.04832 32535 ft 391 kts 193°
2026-05-07 19:51 48.90015 20.03982 31801 ft 393 kts 193°
2026-05-07 19:51 48.87313 20.03105 31259 ft 389 kts 193°
2026-05-07 19:51 48.84831 20.02302 30838 ft 384 kts 193°
2026-05-07 19:51 48.82396 20.01515 30373 ft 380 kts 193°
2026-05-07 19:52 48.79855 20.00695 29834 ft 377 kts 193°
2026-05-07 19:52 48.77272 19.99860 29279 ft 374 kts 193°
2026-05-07 19:52 48.74748 19.99045 28723 ft 371 kts 193°
2026-05-07 19:52 48.72232 19.98235 28155 ft 369 kts 193°
2026-05-07 19:53 48.69768 19.97442 27592 ft 367 kts 193°
2026-05-07 19:53 48.67288 19.96645 27041 ft 364 kts 193°
2026-05-07 19:53 48.64830 19.95857 26517 ft 361 kts 193°
2026-05-07 19:53 48.61563 19.94809 25792 ft 358 kts 193°
2026-05-07 19:54 48.59960 19.94295 25438 ft 357 kts 193°
2026-05-07 19:54 48.57538 19.93518 24899 ft 354 kts 193°
2026-05-07 19:54 48.55145 19.92753 24480 ft 352 kts 193°
2026-05-07 19:54 48.52764 19.91992 24078 ft 351 kts 193°
2026-05-07 19:55 48.50392 19.91235 23674 ft 349 kts 193°
2026-05-07 19:55 48.48027 19.90482 23287 ft 348 kts 193°
2026-05-07 19:55 48.45647 19.89724 22893 ft 347 kts 192°
2026-05-07 19:55 48.43327 19.88987 22508 ft 345 kts 193°
2026-05-07 19:56 48.40990 19.88246 22127 ft 344 kts 193°
2026-05-07 19:56 48.38638 19.87498 21743 ft 342 kts 193°
2026-05-07 19:56 48.36327 19.86764 21348 ft 341 kts 193°
2026-05-07 19:56 48.34020 19.86033 20963 ft 339 kts 193°
2026-05-07 19:57 48.31744 19.85312 20594 ft 337 kts 193°
2026-05-07 19:57 48.29448 19.84610 20206 ft 336 kts 193°
2026-05-07 19:57 48.27156 19.83949 19818 ft 335 kts 192°
2026-05-07 19:57 48.24876 19.83298 19431 ft 333 kts 192°
2026-05-07 19:58 48.22607 19.82654 19067 ft 332 kts 192°
2026-05-07 19:58 48.20341 19.82009 18692 ft 330 kts 192°
2026-05-07 19:58 48.18087 19.81368 18313 ft 329 kts 192°
2026-05-07 19:58 48.15870 19.80737 17940 ft 328 kts 192°
2026-05-07 19:59 48.13627 19.80100 17564 ft 326 kts 192°
2026-05-07 19:59 48.11401 19.79468 17187 ft 326 kts 192°
2026-05-07 19:59 48.09183 19.78838 16825 ft 325 kts 192°
2026-05-07 19:59 48.06965 19.78209 16444 ft 324 kts 192°
2026-05-07 20:00 48.04754 19.77583 16097 ft 323 kts 192°
2026-05-07 20:00 48.02563 19.76963 15992 ft 322 kts 192°
2026-05-07 20:00 48.00356 19.76337 15988 ft 323 kts 192°
2026-05-07 20:00 47.98135 19.75710 15965 ft 324 kts 192°
2026-05-07 20:01 47.95906 19.75079 15435 ft 330 kts 192°
2026-05-07 20:01 47.93635 19.74437 14751 ft 335 kts 192°
2026-05-07 20:01 47.91343 19.73790 14183 ft 337 kts 192°
2026-05-07 20:01 47.89063 19.73148 13629 ft 338 kts 192°
2026-05-07 20:02 47.86880 19.72534 13135 ft 337 kts 192°
2026-05-07 20:02 47.84727 19.71929 12692 ft 335 kts 192°
2026-05-07 20:02 47.82442 19.71288 12237 ft 333 kts 192°
2026-05-07 20:02 47.80169 19.70650 11795 ft 330 kts 192°
2026-05-07 20:03 47.77949 19.70028 11366 ft 328 kts 192°
2026-05-07 20:03 47.75693 19.69395 10929 ft 325 kts 192°
2026-05-07 20:03 47.73481 19.68776 10514 ft 322 kts 192°
2026-05-07 20:03 47.71298 19.68165 10182 ft 316 kts 192°
2026-05-07 20:04 47.69189 19.67578 10060 ft 303 kts 192°
2026-05-07 20:04 47.67169 19.67016 9943 ft 291 kts 192°
2026-05-07 20:04 47.65191 19.66465 9593 ft 287 kts 193°
2026-05-07 20:04 47.63242 19.65920 9248 ft 284 kts 192°
2026-05-07 20:05 47.61301 19.65379 8832 ft 284 kts 193°
2026-05-07 20:05 47.59359 19.64838 8440 ft 283 kts 193°
2026-05-07 20:05 47.57436 19.64304 8064 ft 281 kts 193°
2026-05-07 20:05 47.55542 19.63778 7700 ft 278 kts 193°
2026-05-07 20:06 47.53639 19.63248 7340 ft 276 kts 193°
2026-05-07 20:06 47.51781 19.62733 6996 ft 273 kts 193°
2026-05-07 20:06 47.49918 19.62218 6656 ft 271 kts 193°
2026-05-07 20:06 47.48077 19.61707 6315 ft 268 kts 193°
2026-05-07 20:07 47.46253 19.61203 5978 ft 266 kts 193°
2026-05-07 20:07 47.44445 19.60703 5642 ft 264 kts 193°
2026-05-07 20:07 47.42659 19.60209 5312 ft 262 kts 193°
2026-05-07 20:07 47.40860 19.59712 4980 ft 260 kts 193°
2026-05-07 20:08 47.39096 19.59224 4658 ft 258 kts 193°
2026-05-07 20:08 47.37359 19.58746 4507 ft 249 kts 193°
2026-05-07 20:08 47.35737 19.58089 4402 ft 238 kts 208°
2026-05-07 20:08 47.35437 19.57862 4380 ft 238 kts 212°
2026-05-07 20:09 47.34140 19.56379 4075 ft 236 kts 224°
2026-05-07 20:09 47.32940 19.54732 3782 ft 234 kts 225°
2026-05-07 20:09 47.31760 19.53099 3577 ft 227 kts 225°
2026-05-07 20:10 47.30784 19.49052 3025 ft 217 kts 285°
2026-05-07 20:10 47.31393 19.47112 2964 ft 205 kts 303°
2026-05-07 20:10 47.32282 19.45469 3089 ft 205 kts 310°
2026-05-07 20:10 47.33267 19.43935 2995 ft 205 kts 312°
2026-05-07 20:11 47.34236 19.42439 2739 ft 198 kts 311°
2026-05-07 20:11 47.35148 19.40987 2475 ft 191 kts 310°
2026-05-07 20:11 47.36304 19.39109 2151 ft 176 kts 310°
2026-05-07 20:11 47.36832 19.38249 2012 ft 163 kts 310°
2026-05-07 20:12 47.37552 19.37079 1772 ft 148 kts 310°
2026-05-07 20:12 47.38234 19.35969 1582 ft 144 kts 310°
2026-05-07 20:12 47.38909 19.34872 1404 ft 144 kts 310°
2026-05-07 20:12 47.39518 19.33884 1236 ft 143 kts 310°
2026-05-07 20:13 47.40207 19.32765 1039 ft 143 kts 310°
2026-05-07 20:13 47.40876 19.31679 847 ft 143 kts 311°
2026-05-07 20:13 47.41544 19.30599 666 ft 143 kts 310°
2026-05-07 20:13 47.42217 19.29517 492 ft 143 kts 310°
2026-05-07 20:14 47.42862 19.28473 425 ft 126 kts 312°
2026-05-07 20:14 47.43339 19.27697 447 ft 79 kts 313°
2026-05-07 20:14 47.43579 19.27310 460 ft 37 kts 311°
2026-05-07 20:14 47.43698 19.27078 467 ft 25 kts 299°
2026-05-07 20:15 47.43750 19.26853 471 ft 21 kts 282°
2026-05-07 20:15 47.43780 19.26650 475 ft 18 kts 282°
2026-05-07 20:15 47.43790 19.26480 477 ft 15 kts 235°
2026-05-07 20:15 47.43729 19.26509 477 ft 12 kts 133°
2026-05-07 20:16 47.43666 19.26612 475 ft 15 kts 132°
2026-05-07 20:16 47.43589 19.26736 472 ft 17 kts 132°
2026-05-07 20:16 47.43503 19.26874 469 ft 19 kts 132°
2026-05-07 20:16 47.43419 19.27011 466 ft 17 kts 132°
2026-05-07 20:17 47.43349 19.27083 463 ft 12 kts 183°
2026-05-07 20:17 47.43299 19.26995 465 ft 10 kts 248°
2026-05-07 20:17 47.43317 19.26906 467 ft 9 kts 310°
2026-05-07 20:17 47.43357 19.26841 468 ft 7 kts 311°
2026-05-07 20:18 47.43387 19.26791 470 ft 4 kts 311°
2026-05-07 20:18 47.43390 19.26763 471 ft 2 kts 255°
2026-05-07 20:18 47.43380 19.26744 471 ft 2 kts 222°
2026-05-07 20:18 47.43369 19.26730 471 ft 2 kts 221°
2026-05-07 20:19 47.43359 19.26717 471 ft 1 kts 221°
2026-05-07 20:19 47.43354 19.26711 471 ft 0 kts 222°